Tracking 19909 objects as of 22-Oct-2019
HD Live streaming from Space Station
objects crossing your sky now

NSS 513 (INTELSAT 513)

Track NSS 513 (INTELSAT 513) now!
NSS 513 (INTELSAT 513) is classified as:


NORAD ID: 19121
Int'l Code: 1988-040A
Perigee: 36,227.1 km
Apogee: 36,326.7 km
Inclination: 15.4 °
Period: 1,460.9 minutes
Semi major axis: 42647 km
RCS: 9.2727 m2 (large)
Launch date: May 17, 1988
Source: Netherlands (NETH)
Launch site: FRENCH GUIANA (FRGUI)
aabbcc
Your satellite tracking list
Your tracking list is empty




NASA's NSSDC Master Catalog

Two Line Element Set (TLE):
1 19121U 88040A   19294.44875127 -.00000002  00000-0  00000+0 0  9999
2 19121  15.4161   8.0161 0011673  36.2318  20.0878  0.98572626 90628
Source of the keplerian elements: AFSPC